Temperature
20 20 20 19 19 19 19 18 18 18 17 17 17 17 17 16 16 16 16 16 16 16 16 15 15 15 15 15 15 15 15 15 15 15 14 14 14 14 14 14 14 14 14
20 20 19 19 19 19 19 18 18 18 17 17 17 17 17 16 16 16 16 16 16 15 15 15 15 15 15 15 15 14 14 14 14 14 14 14 14 14 14 14 14 14 14
20 20 19 19 19 19 19 18 18 18 17 17 17 17 16 16 16 16 16 16 15 15 15 15 15 15 15 15 14 14 14 14 14 14 14 14 13 13 14 14 14 14 14
20 19 19 19 19 19 19 18 18 18 17 17 17 17 17 16 16 16 16 16 15 15 15 15 15 15 15 15 14 14 14 14 14 14 14 14 13 13 13 13 13 13 13
20 19 19 19 19 18 18 18 18 18 17 17 17 17 17 16 16 16 16 15 15 15 15 15 15 15 15 14 14 14 14 14 14 14 14 14 13 13 13 13 13 13 13
20 19 19 19 19 18 18 18 18 17 17 17 17 17 17 16 16 16 16 15 15 15 15 15 15 15 14 14 14 14 14 14 14 13 13 13 13 13 13 13 13 13 13
19 19 19 19 18 18 18 18 17 17 17 17 17 17 17 16 16 16 16 15 15 15 15 15 15 14 14 14 14 14 14 14 13 13 13 13 13 13 13 13 13 12 12
19 19 19 18 18 18 18 17 17 17 17 17 17 17 16 16 16 16 15 15 15 15 15 14 14 14 14 14 14 14 14 14 13 13 13 13 13 13 13 13 13 12 12
19 19 19 18 18 18 18 17 17 17 17 17 16 16 16 16 16 15 15 15 15 15 14 14 14 14 14 14 14 14 14 13 13 13 13 13 13 13 13 13 13 13 12
19 19 18 18 18 18 17 17 17 17 16 16 16 16 16 16 15 15 15 15 15 14 14 14 14 14 14 14 14 14 13 13 13 13 13 13 13 13 13 13 13 13 13
18 18 18 18 18 17 17 17 16 16 16 16 16 16 15 15 15 15 15 14 14 14 14 14 14 14 14 14 14 13 13 13 13 13 13 13 13 13 13 13 12 12 12
18 18 18 17 17 17 17 16 16 16 16 16 15 15 15 15 15 14 14 14 14 14 14 14 14 14 13 13 13 13 13 13 13 13 13 13 13 12 12 12 12 12 12
18 17 17 17 17 16 16 16 16 16 15 15 15 15 15 15 14 14 14 14 13 13 13 13 13 13 13 13 13 13 13 13 13 13 13 12 12 12 12 12 12 12 12
17 17 17 17 16 16 16 16 15 15 15 15 15 15 14 14 14 14 14 13 13 13 13 13 13 13 13 13 13 13 13 13 13 13 12 12 12 12 12 12 12 12 12
16 16 16 16 16 16 15 15 15 15 15 14 14 14 14 14 14 14 13 13 13 13 13 13 13 13 13 13 12 12 12 12 12 12 12 12 12 12 12 12 12 12 11
15 15 15 15 15 15 15 15 15 14 14 14 14 14 14 13 13 13 13 13 13 13 12 12 12 12 12 12 12 12 12 12 12 12 12 12 12 12 12 12 11 11 11
14 15 15 15 15 15 15 15 15 14 14 14 13 13 13 13 13 13 13 12 12 12 12 12 12 12 12 12 11 11 11 12 12 12 11 11 11 12 12 11 11 11 11
14 14 14 14 14 14 14 14 14 14 14 13 13 13 13 13 12 12 12 12 12 12 12 12 11 11 11 11 11 11 11 11 11 11 11 11 11 11 11 11 11 11 11
14 14 14 14 14 14 14 14 14 13 13 13 13 13 12 12 12 12 12 12 11 11 11 11 11 11 11 11 11 11 11 11 11 11 11 11 11 11 10 11 11 11 11
13 13 13 13 13 13 13 13 13 13 13 13 13 12 12 12 12 12 11 11 11 11 11 11 10 10 10 10 10 10 11 11 11 10 10 10 10 10 10 10 10 10 10
13 13 13 13 13 13 12 13 13 12 12 12 12 12 12 12 11 11 11 11 10 10 10 10 10 10 10 10 10 10 10 10 10 10 10 10 10 10 10 10 10 10 10
12 12 12 12 12 12 12 12 12 12 12 12 12 11 11 11 11 11 11 10 10 10 10 10 10 10 9 9 9 9 9 9 9 10 10 9 9 9 9 9 9 9 9
11 11 11 11 11 11 11 11 11 11 11 11 11 11 11 11 11 10 10 10 10 10 9 9 9 9 9 9 9 9 9 9 9 9 9 9 9 9 9 9 9 9 9
11 11 11 11 11 10 10 11 11 11 11 10 10 10 10 10 10 10 10 10 9 9 9 9 9 9 9 9 9 9 8 8 8 8 8 8 8 8 8 8 8 8 8
10 10 10 10 10 10 10 10 10 10 10 10 10 10 10 10 10 10 9 9 9 9 9 9 9 8 8 8 8 8 8 8 8 8 8 8 8 8 8 8 8 8 7
10 10 9 9 9 9 9 9 9 9 9 9 9 9 9 9 9 9 9 9 9 9 8 8 8 8 8 8 8 8 8 8 7 7 7 7 7 7 7 7 7 7 7
Wind_Speed
6 6 7 8 7 6 6 6 5 4 4 3 3 3 2 1 2 2 4 5 5 6 5 3 3 3 3 2 2 2 3 2 2 3 3 4 3 2 1 1 2 1 2
6 6 7 7 7 7 7 6 6 5 5 4 3 3 3 2 2 1 3 4 5 5 5 4 3 2 3 2 2 2 2 1 2 2 2 2 4 3 2 1 1 0 2
10 9 8 7 8 8 8 7 6 6 5 4 3 3 3 2 2 1 1 1 4 5 5 5 4 3 3 2 1 2 3 1 1 1 3 2 2 2 3 2 1 1 1
8 8 9 8 8 8 8 7 7 6 5 6 6 6 4 3 3 2 2 1 3 4 4 5 4 3 3 3 2 2 2 3 1 1 1 1 3 2 1 3 3 2 0
9 9 9 9 8 7 6 6 6 6 5 5 6 6 4 3 2 2 2 1 1 2 3 4 4 3 2 3 2 2 2 2 2 1 0 1 1 1 2 1 3 3 2
8 8 7 7 6 5 5 5 6 6 5 6 6 6 6 5 4 3 2 1 1 1 2 3 3 3 3 3 3 2 3 2 2 1 1 2 2 1 2 2 2 2 2
7 8 8 7 6 6 6 5 6 6 5 6 6 6 7 6 6 5 4 3 2 1 2 2 3 3 3 3 3 3 3 2 2 2 1 2 2 2 2 2 1 1 2
6 8 8 8 7 7 7 6 6 5 6 6 6 5 5 4 4 4 3 3 3 3 3 3 3 3 3 3 3 2 3 3 3 3 2 1 2 2 2 3 3 1 1
6 7 7 7 6 6 6 6 6 5 6 6 5 4 4 4 4 4 3 3 2 2 2 2 2 3 3 3 3 3 3 3 3 3 3 2 2 2 2 3 4 4 2
3 4 5 6 6 6 5 5 6 6 5 5 5 4 4 4 4 4 3 3 3 2 2 2 2 2 2 2 3 3 3 3 3 3 3 3 2 2 2 2 2 3 4
4 4 4 5 5 4 4 4 4 4 4 5 5 4 4 4 3 3 4 4 3 3 3 3 3 3 2 2 3 3 3 4 4 3 3 4 3 2 2 2 2 2 3
4 4 4 4 4 4 4 4 4 4 4 4 4 5 4 3 3 3 3 3 3 3 4 3 3 3 3 3 3 4 3 4 5 5 4 4 3 3 3 3 3 3 3
2 3 3 4 4 4 4 4 4 4 4 3 4 3 3 4 4 4 4 3 3 3 3 3 4 4 4 4 4 4 4 5 5 5 5 5 4 4 3 3 4 3 3
2 2 3 3 4 4 4 4 4 4 3 3 3 4 4 4 4 4 4 4 4 4 4 4 4 4 4 4 4 3 3 4 4 5 5 6 6 6 5 4 5 4 3
2 1 2 2 2 2 3 3 3 4 4 3 3 4 4 4 3 3 3 3 4 4 4 4 3 2 3 3 3 3 3 3 3 3 4 5 6 7 6 5 5 5 4
1 1 0 0 1 2 3 3 4 4 4 5 4 4 3 3 3 3 3 3 3 3 3 4 4 3 3 3 4 4 4 4 4 4 4 3 4 6 7 7 7 8 7
1 1 1 2 3 3 3 4 5 4 5 5 4 3 3 3 3 3 2 3 3 3 3 4 4 4 5 5 4 5 3 4 4 4 4 3 3 3 3 5 5 7 8
2 3 3 2 3 3 2 3 3 4 5 5 5 5 4 4 3 3 3 4 3 3 4 4 4 4 5 6 5 5 4 3 3 4 4 3 3 3 3 3 3 4 4
2 3 3 3 2 3 3 1 2 3 4 5 5 5 5 4 3 4 4 3 3 4 4 4 4 4 5 6 6 4 2 2 3 3 3 3 3 4 4 4 3 2 2
2 2 2 2 2 2 1 1 2 2 5 6 6 5 5 5 5 5 4 3 3 4 4 3 3 4 4 5 5 4 2 2 2 2 3 4 4 4 5 5 4 3 2
3 2 2 2 2 2 0 1 1 3 5 4 4 4 5 5 5 4 3 3 3 3 3 3 3 3 4 4 4 4 3 3 3 3 3 3 4 4 5 5 4 5 3
3 3 3 3 3 2 0 1 3 4 3 2 3 4 4 4 3 3 3 3 3 3 3 2 2 2 3 3 4 5 4 3 3 3 3 3 4 4 5 4 4 4 3
3 3 2 3 4 3 1 2 3 2 1 1 2 3 3 2 3 3 3 2 3 3 3 3 3 3 2 3 4 5 4 4 3 3 3 3 3 3 3 4 4 3 3
3 3 3 3 4 4 3 2 2 1 0 1 2 2 1 1 1 2 2 2 3 3 4 3 3 3 2 2 2 2 2 2 2 1 1 1 2 2 2 2 2 2 3
3 2 2 2 3 4 3 3 2 1 0 1 2 2 2 2 2 1 2 3 4 4 5 5 4 4 4 5 5 3 3 3 3 1 1 1 1 1 1 1 1 1 1
2 2 2 2 3 3 3 3 2 0 0 1 2 2 2 2 2 2 1 2 2 4 5 5 5 4 5 4 4 4 4 5 5 3 2 2 2 3 3 2 2 2 2
Wind_Direction
193 160 154 149 145 146 140 140 140 139 130 123 128 123 124 127 100 108 115 119 113 113 112 108 104 102 106 106 96 93 70 53 66 70 32 7 15 32 42 74 99 104 120
177 162 153 152 152 154 150 148 152 152 152 158 159 156 153 146 141 123 97 113 119 121 124 121 124 120 109 91 87 92 91 47 62 106 87 19 357 359 9 30 103 118 125
185 174 164 163 159 159 164 163 167 164 161 150 129 106 78 58 58 74 100 126 130 126 128 132 128 128 126 132 133 119 119 123 4 95 131 133 221 309 340 354 18 29 101
181 173 167 168 172 177 174 166 166 164 158 145 142 144 149 162 192 183 172 151 137 134 135 140 137 143 143 147 156 125 123 128 139 339 49 150 157 151 312 333 342 344 320
181 176 175 177 176 174 172 168 161 162 157 152 151 148 148 171 168 146 138 146 147 142 143 143 144 154 156 163 158 136 128 130 151 169 145 76 69 112 146 268 316 340 324
181 177 172 166 170 165 157 162 160 165 162 158 155 157 160 161 147 151 162 172 172 189 176 155 156 166 169 178 179 165 158 156 145 153 149 147 148 176 155 195 251 278 303
178 176 171 168 170 165 166 162 164 170 168 165 167 169 172 167 168 175 179 173 178 208 225 191 189 187 184 181 173 173 184 181 171 184 200 193 197 177 164 162 202 249 295
184 182 183 180 177 176 172 170 167 174 171 171 179 179 174 170 177 181 177 183 198 210 208 193 195 196 188 186 178 187 205 194 197 204 200 206 219 188 174 169 160 154 324
189 185 180 178 178 177 179 174 171 172 176 174 172 171 173 170 175 179 175 186 207 209 188 184 193 203 195 192 184 201 215 207 212 214 210 212 222 200 193 176 167 162 189
177 180 178 178 180 179 177 169 168 171 174 173 175 174 182 183 180 169 171 183 199 199 188 192 194 199 197 194 190 210 215 201 218 219 217 226 228 213 198 184 177 171 172
178 180 182 181 173 164 162 165 171 169 171 181 178 172 187 188 179 182 196 198 198 196 197 201 201 204 210 210 200 212 211 209 220 225 218 230 224 215 214 190 175 175 162
175 173 167 161 158 162 165 172 176 180 193 191 182 182 186 178 184 201 208 201 199 204 202 197 198 205 209 212 206 218 219 215 219 223 221 234 223 219 209 192 190 185 178
145 143 151 164 174 176 179 183 184 188 193 180 176 183 188 187 200 210 210 204 202 209 210 201 205 210 211 213 215 219 223 223 224 219 216 221 203 214 208 195 193 187 176
155 149 167 182 187 184 181 184 196 192 184 175 170 183 198 201 205 206 203 203 199 198 204 211 217 218 213 211 212 218 228 234 239 231 220 214 205 207 204 201 196 184 173
62 109 176 185 195 196 194 191 199 196 186 179 183 203 210 205 200 202 207 209 205 206 202 201 215 216 212 211 200 206 219 225 241 248 236 224 217 212 204 202 195 184 182
7 6 42 177 206 216 216 211 210 207 188 192 206 210 199 192 198 204 205 207 216 216 202 200 202 208 224 225 202 194 212 217 222 234 245 248 231 229 216 208 197 186 186
317 288 246 237 247 247 231 219 216 204 192 198 207 205 197 197 212 213 205 212 221 220 214 213 204 214 227 222 213 204 204 214 220 224 228 247 247 235 221 220 211 210 205
318 301 276 268 269 258 250 241 216 203 199 202 212 212 202 202 205 199 210 217 213 213 218 223 215 220 238 232 224 215 200 214 225 222 216 221 243 232 206 211 212 222 218
287 277 264 264 271 268 254 249 235 217 209 212 217 216 207 203 202 207 217 216 210 216 221 222 221 225 247 241 230 210 204 216 234 236 226 213 219 235 202 182 193 222 251
323 310 305 326 324 292 246 205 244 224 222 223 221 214 206 204 211 213 214 218 212 216 214 226 228 227 238 239 227 206 191 208 229 241 239 229 217 214 184 178 183 207 236
343 3 20 360 319 305 301 227 242 240 241 238 228 221 214 214 213 206 208 213 213 207 206 217 234 234 234 233 222 201 188 200 212 224 237 238 218 199 188 182 193 211 197
4 15 12 343 329 333 340 280 263 260 258 239 227 227 226 226 221 201 211 208 198 199 212 226 251 255 246 229 225 215 206 188 200 225 232 230 210 198 193 190 200 186 152
351 354 357 344 335 330 307 258 275 284 282 253 246 237 232 236 213 199 209 214 201 204 222 229 244 259 257 246 237 227 219 210 211 229 227 227 207 194 196 195 182 160 158
335 340 350 347 332 324 316 282 288 302 325 295 289 256 223 252 234 211 205 208 212 210 216 223 238 258 259 247 244 232 226 212 203 209 200 187 166 161 175 167 165 168 175
313 322 323 320 316 323 328 321 317 336 309 288 288 288 250 226 226 231 230 224 227 219 214 219 217 220 241 245 224 201 204 201 199 156 97 80 129 150 149 143 168 180 174
307 313 313 313 313 323 329 326 321 303 220 278 291 288 269 244 224 219 271 272 250 255 238 223 210 223 228 221 213 204 195 182 162 137 153 176 187 189 194 192 203 206 206
Height
1524 1525 1526 1527 1529 1529 1530 1531 1532 1533 1534 1535 1535 1536 1537 1537 1538 1538 1539 1539 1539 1539 1539 1539 1539 1539 1539 1538 1538 1538 1538 1538 1538 1537 1537 1538 1538 1538 1537 1537 1536 1536 1536
1522 1523 1525 1526 1527 1528 1529 1530 1531 1532 1533 1534 1535 1535 1536 1537 1537 1538 1538 1538 1538 1539 1538 1538 1538 1538 1538 1538 1538 1538 1537 1537 1537 1537 1537 1537 1539 1538 1537 1537 1536 1536 1536
1518 1520 1522 1523 1525 1526 1527 1528 1529 1531 1532 1533 1534 1535 1535 1536 1536 1536 1537 1537 1537 1538 1537 1537 1537 1537 1537 1537 1537 1537 1537 1537 1537 1537 1537 1537 1537 1537 1537 1537 1536 1536 1535
1516 1517 1519 1521 1523 1524 1525 1526 1528 1529 1530 1531 1532 1533 1533 1534 1534 1535 1535 1536 1536 1536 1536 1536 1536 1536 1536 1536 1536 1536 1536 1536 1536 1536 1536 1537 1536 1536 1536 1536 1536 1535 1535
1514 1515 1517 1519 1521 1522 1523 1524 1526 1527 1528 1529 1530 1531 1532 1532 1533 1534 1534 1534 1534 1534 1534 1534 1535 1535 1534 1535 1535 1535 1535 1535 1535 1535 1535 1535 1535 1535 1535 1534 1534 1534 1534
1511 1513 1515 1517 1519 1520 1521 1522 1523 1524 1526 1527 1528 1529 1530 1530 1531 1532 1532 1532 1533 1533 1533 1533 1533 1533 1533 1533 1533 1533 1533 1533 1534 1534 1533 1533 1533 1533 1533 1533 1533 1532 1533
1509 1511 1512 1514 1516 1518 1519 1520 1521 1522 1523 1525 1526 1526 1527 1528 1529 1529 1530 1530 1530 1530 1531 1531 1531 1531 1531 1531 1531 1531 1531 1532 1532 1532 1532 1532 1532 1532 1532 1532 1531 1531 1531
1507 1508 1510 1512 1514 1515 1517 1518 1519 1520 1521 1522 1523 1524 1525 1526 1526 1527 1527 1528 1528 1528 1528 1528 1529 1529 1529 1529 1529 1529 1529 1529 1530 1530 1530 1530 1530 1531 1530 1530 1530 1529 1530
1505 1507 1508 1510 1512 1513 1515 1516 1517 1517 1518 1520 1521 1522 1522 1523 1524 1524 1525 1525 1526 1526 1526 1526 1526 1526 1526 1526 1526 1526 1527 1527 1527 1528 1528 1528 1528 1528 1528 1528 1528 1528 1527
1504 1505 1507 1508 1509 1511 1513 1514 1515 1515 1516 1517 1518 1519 1520 1520 1521 1522 1522 1522 1523 1523 1523 1523 1523 1523 1524 1524 1524 1524 1524 1524 1525 1525 1525 1525 1526 1526 1526 1526 1526 1526 1526
1503 1503 1505 1507 1508 1509 1510 1511 1512 1513 1513 1515 1515 1516 1517 1518 1518 1518 1519 1519 1519 1520 1520 1520 1520 1520 1520 1521 1521 1521 1521 1521 1521 1522 1522 1522 1523 1523 1523 1523 1523 1523 1524
1502 1502 1504 1505 1506 1507 1508 1509 1510 1511 1511 1512 1512 1513 1514 1514 1515 1515 1515 1516 1516 1516 1516 1517 1517 1517 1517 1517 1517 1517 1518 1518 1518 1518 1519 1519 1519 1519 1520 1520 1520 1520 1521
1501 1502 1502 1503 1504 1505 1505 1506 1507 1508 1508 1509 1509 1510 1510 1511 1511 1512 1512 1512 1512 1512 1513 1513 1513 1513 1513 1514 1514 1514 1514 1514 1514 1515 1515 1516 1516 1516 1516 1517 1517 1517 1518
1501 1501 1501 1501 1502 1502 1503 1503 1504 1504 1505 1506 1506 1506 1507 1507 1508 1508 1508 1508 1508 1508 1509 1509 1509 1509 1509 1510 1510 1510 1510 1510 1511 1511 1512 1512 1512 1512 1513 1513 1514 1514 1515
1499 1499 1499 1499 1499 1500 1500 1500 1500 1501 1502 1502 1502 1503 1503 1504 1504 1505 1505 1505 1505 1505 1505 1505 1505 1505 1505 1505 1506 1506 1506 1507 1507 1507 1508 1508 1509 1509 1510 1510 1510 1511 1511
1497 1497 1497 1497 1497 1497 1497 1497 1497 1498 1498 1499 1499 1499 1500 1500 1500 1501 1501 1501 1501 1501 1501 1501 1501 1501 1502 1501 1502 1502 1503 1503 1503 1503 1504 1504 1504 1505 1506 1506 1507 1507 1508
1495 1495 1495 1494 1494 1494 1493 1494 1494 1494 1495 1495 1495 1496 1496 1496 1496 1497 1497 1497 1497 1497 1497 1497 1497 1497 1497 1498 1498 1498 1499 1499 1499 1499 1500 1500 1500 1501 1501 1502 1503 1503 1504
1493 1492 1492 1491 1491 1491 1491 1490 1490 1491 1491 1491 1492 1492 1492 1492 1492 1492 1493 1493 1493 1493 1492 1493 1493 1493 1493 1494 1494 1494 1494 1494 1495 1495 1495 1496 1496 1497 1497 1498 1499 1499 1500
1491 1490 1489 1488 1488 1487 1487 1487 1486 1486 1486 1487 1487 1487 1488 1488 1488 1488 1488 1488 1488 1488 1488 1488 1488 1489 1489 1489 1490 1490 1490 1490 1490 1491 1491 1492 1492 1493 1493 1494 1494 1495 1496
1489 1488 1486 1485 1485 1484 1484 1483 1482 1482 1482 1482 1483 1483 1483 1484 1484 1484 1484 1484 1484 1484 1484 1484 1484 1485 1485 1485 1485 1486 1485 1486 1486 1486 1487 1487 1488 1489 1489 1490 1490 1491 1492
1486 1485 1484 1483 1482 1481 1480 1479 1478 1478 1478 1479 1479 1479 1479 1479 1479 1479 1480 1480 1480 1480 1480 1480 1480 1480 1480 1481 1481 1481 1481 1481 1481 1481 1482 1483 1483 1484 1485 1486 1486 1487 1488
1484 1483 1482 1480 1479 1478 1477 1476 1475 1475 1475 1475 1475 1475 1475 1475 1475 1475 1475 1476 1476 1475 1476 1476 1476 1476 1476 1476 1476 1477 1477 1477 1477 1477 1477 1478 1479 1479 1480 1481 1482 1483 1484
1483 1481 1480 1478 1477 1476 1475 1474 1473 1472 1472 1472 1471 1471 1471 1471 1471 1471 1471 1471 1471 1471 1471 1472 1471 1471 1472 1472 1472 1473 1473 1473 1473 1473 1473 1474 1474 1475 1476 1477 1478 1478 1479
1481 1480 1478 1476 1475 1474 1473 1472 1471 1470 1469 1468 1468 1468 1467 1467 1467 1467 1468 1467 1467 1467 1467 1467 1467 1467 1467 1467 1468 1468 1468 1468 1468 1469 1469 1470 1470 1471 1472 1472 1473 1474 1475
1479 1478 1476 1475 1473 1472 1470 1469 1468 1467 1466 1465 1465 1464 1464 1463 1463 1463 1464 1463 1463 1463 1463 1463 1463 1463 1462 1463 1463 1463 1463 1463 1464 1464 1465 1465 1466 1466 1467 1468 1469 1470 1471
1476 1475 1474 1473 1471 1470 1468 1467 1466 1465 1464 1463 1462 1461 1461 1460 1460 1459 1459 1459 1460 1459 1459 1459 1459 1459 1459 1459 1459 1460 1460 1460 1460 1461 1460 1461 1461 1462 1463 1464 1465 1466 1467